[[{"header":{"parameterUnit":"m.s-1","parameterCategory":1,"la1":30.2991,"la2":30.254,"lo1":-89.0895,"lo2":-89.0444,"dy":0.0017,"dx":0.0017,"nx":28,"ny":28,"refTime":"2024-08-07T03:00:00:Z","depth":0,"parameterNumber":2,"parameterNumberName":"U-component_of_WINDS"},"data":[0,0,0,0,0,0,0,0,0,0,0,0,0,0,0,0,0,0,0,0,0,0,0,0,0,0,0,0,0,0,0,0,0,0,0,0,0,0,0,0,0,0,0,0,0,0,0,0,0,0,0,0,0,0,0,0,0,0,3.0546,3.0546,0,3.0602,3.0603,3.0603,3.0572,3.0571,3.0569,3.0568,3.0627,3.063,3.0633,0,0,0,0,0,0,0,0,0,0,0,0,0,3.0415,3.0417,3.0546,3.0546,3.0547,3.0602,3.0603,3.0603,3.0573,3.0571,3.0569,3.0567,3.0626,3.063,3.0633,0,0,0,0,0,0,0,0,0,0,0,0,0,3.0471,3.0418,3.0546,3.0538,3.0538,3.0602,3.0603,3.0604,3.0573,3.0571,3.0568,3.0566,3.0625,3.0629,3.0634,3.0708,0,0,3.0648,3.065,0,0,0,0,0,0,0,0,3.0468,3.0476,3.0539,3.0539,3.0539,3.0578,3.0578,3.0639,3.0574,3.056,3.0568,3.0565,3.0613,3.0618,3.0634,3.0711,3.0713,3.0648,3.0651,3.0653,3.0654,0,0,0,0,0,0,0,3.0464,3.0474,3.0568,3.054,3.054,3.0533,3.0539,3.059,3.0599,3.0561,3.0559,3.0566,3.0612,3.0629,3.0635,3.0714,3.0648,3.0652,3.0655,3.0656,3.0858,3.086,0,0,0,0,0,0,3.0461,3.0471,3.0566,3.057,3.0497,3.0537,3.0544,3.0568,3.0598,3.06,3.0568,3.0564,3.0623,3.063,3.0637,3.0727,3.0653,3.0657,3.0659,3.0855,3.0858,3.0861,0,0,0,0,0,0,3.0458,3.0469,3.0564,3.052,3.0531,3.0542,3.0569,3.057,3.0587,3.0603,3.0605,3.0583,3.0621,3.063,3.0691,3.0729,3.0659,3.0663,3.0852,3.0856,3.086,3.0908,0,0,0,0,0,0,3.0454,3.0469,3.0496,3.052,3.0534,3.0616,3.0572,3.0573,3.0595,3.0591,3.0618,3.0621,3.062,3.0684,3.0696,3.0734,3.0667,3.0849,3.0854,3.0859,3.0903,3.0913,3.0922,0,0,0,0,0,3.045,3.0507,3.0498,3.0509,3.0568,3.0619,3.0626,3.0624,3.0598,3.0626,3.0637,3.062,3.0723,3.0691,3.0703,3.0743,3.0846,3.0853,3.0858,3.0899,3.0911,3.0922,0,0,0,0,0,0,3.0487,3.051,3.05,3.0567,3.0591,3.0613,3.0649,3.0637,3.0669,3.0664,3.066,3.0667,3.0731,3.0743,3.0707,3.0818,3.0781,3.0789,3.0808,3.082,3.0829,3.0825,3.067,0,0,0,0,0,3.0503,3.0542,3.056,3.0618,3.063,3.0638,3.066,3.0656,3.0681,3.0691,3.0706,3.0732,3.077,3.0795,3.0831,3.0905,3.0912,3.0939,3.0948,3.0956,3.0964,3.1005,3.1018,3.0881,3.0881,3.0881,0,0,3.0537,3.0554,3.0579,3.0626,3.0644,3.0685,3.0646,3.0691,3.0722,3.0698,3.0756,3.0769,3.0797,3.0865,3.0896,3.0877,3.1003,3.0963,3.0969,3.0973,3.1013,3.1026,3.1037,3.0885,3.0884,3.0883,0,0,3.062,3.0636,3.0686,3.0706,3.0734,3.0739,3.0751,3.0776,3.0783,3.0841,3.0825,3.0862,3.0928,3.0949,3.0969,3.1062,3.1048,3.1074,3.1123,3.1163,3.1174,3.1184,3.1218,3.1231,3.1081,3.1081,3.1081,0,3.0658,3.0718,3.0714,3.076,3.0782,3.0763,3.0815,3.0834,3.0873,3.0889,3.0868,3.0951,3.0969,3.1043,3.1066,3.1082,3.1097,3.1071,3.1173,3.1182,3.1191,3.1224,3.1237,3.1084,3.1084,3.1084,3.1083,0,3.0765,3.0807,3.0845,3.0883,3.0909,3.0958,3.0963,3.099,3.0984,3.0992,3.1053,3.1074,3.1115,3.1132,3.1127,3.1205,3.1193,3.1173,3.1135,3.1208,3.1239,3.1251,3.1089,3.1088,3.1087,3.1086,0,0,3.0872,3.0908,3.0922,3.094,3.097,3.1004,3.1053,3.1092,3.1116,3.1144,3.1186,3.1243,3.1225,3.1247,3.1245,3.128,3.1355,3.1256,3.1256,3.1274,3.1445,3.1461,3.1475,3.1346,3.1348,3.135,3.1443,0,3.0957,3.1042,3.1041,3.112,3.116,3.1143,3.1186,3.121,3.1219,3.1255,3.1265,3.1306,3.1278,3.1292,3.1326,3.1338,3.1389,3.1331,3.1386,3.1388,3.138,3.1491,3.1508,3.1594,3.1455,3.1457,3.1458,0,3.1067,3.1099,3.1183,3.1209,3.1226,3.1264,3.1302,3.1336,3.1364,3.1368,3.1394,3.1386,3.1438,3.1398,3.147,3.1431,3.1453,3.1463,3.1466,3.1472,3.1428,3.1501,3.1622,3.1635,3.1477,3.1475,3.1474,0,3.1139,3.1202,3.1261,3.1276,3.1308,3.1336,3.1351,3.1376,3.1401,3.1434,3.145,3.1489,3.1511,3.1541,3.1545,3.1516,3.1618,3.1579,3.1624,3.1624,3.1646,3.1645,3.1774,3.166,3.1659,3.1659,3.1659,0,3.1234,3.1286,3.1293,3.1329,3.1388,3.1387,3.1445,3.1457,3.148,3.152,3.1508,3.1545,3.1547,3.1586,3.1589,3.1649,3.1659,3.1664,3.1665,3.1666,3.1665,3.1681,3.1675,3.1663,3.1662,3.1661,3.1661,0,3.1324,3.133,3.1393,3.1419,3.1426,3.1469,3.1491,3.1526,3.1534,3.1584,3.1596,3.1609,3.1654,3.1661,3.1714,3.1716,3.1789,3.1782,3.1779,3.1778,3.1824,3.182,3.1968,3.1988,3.186,3.1861,3.1862,0,3.1385,3.1424,3.1454,3.148,3.1496,3.1537,3.1562,3.1563,3.159,3.1626,3.1657,3.1701,3.1736,3.181,3.1825,3.1866,3.1861,3.191,3.1867,3.1867,3.1863,3.1861,3.1866,3.1918,3.192,3.1921,3.1922,0,3.1493,3.1494,3.1531,3.1569,3.16,3.163,3.1659,3.1681,3.1686,3.1717,3.1763,3.179,3.1845,3.1889,3.193,3.1947,3.1936,3.1935,3.1948,3.195,3.1947,3.195,3.1803,3.1932,3.1931,3.193,3.1929,3.1929,3.157,3.1605,3.1633,3.1674,3.1696,3.1724,3.1758,3.1771,3.1809,3.1854,3.1852,3.1903,3.1932,3.1986,3.2006,3.2046,3.2031,3.2049,3.2054,3.2058,3.2063,3.194,3.2054,3.2053,3.2053,3.2053,3.2053,0,3.1679,3.1696,3.1734,3.1775,3.1808,3.1795,3.1826,3.1855,3.19,3.1928,3.1963,3.2017,3.206,3.2079,3.2122,3.2151,3.2148,3.2163,3.2161,3.2165,3.2074,3.2059,3.2165,3.2165,3.2165,3.2165,3.2165,3.2165,3.1739,3.1798,3.1803,3.1874,3.1891,3.194,3.196,3.1986,3.2008,3.2069,3.2105,3.2117,3.2141,3.2187,3.2226,3.2231,3.2248,3.2266,3.2268,3.2183,3.2172,3.2161,3.2147,3.2269,3.2269,3.2356,3.2357,3.2357]},{"header":{"parameterUnit":"m.s-1","parameterCategory":1,"la1":30.2991,"la2":30.254,"lo1":-89.0895,"lo2":-89.0444,"dy":0.0017,"dx":0.0017,"nx":28,"ny":28,"refTime":"2024-08-07T03:00:00:Z","depth":0,"parameterNumber":3,"parameterNumberName":"V-component_of_WINDS"},"data":[0,0,0,0,0,0,0,0,0,0,0,0,0,0,0,0,0,0,0,0,0,0,0,0,0,0,0,0,0,0,0,0,0,0,0,0,0,0,0,0,0,0,0,0,0,0,0,0,0,0,0,0,0,0,0,0,0,0,-3.2802,-3.2803,0,-3.2871,-3.2872,-3.2873,-3.2923,-3.2924,-3.2924,-3.2925,-3.2991,-3.2993,-3.2994,0,0,0,0,0,0,0,0,0,0,0,0,0,-3.2713,-3.2714,-3.2802,-3.2803,-3.2804,-3.2871,-3.2872,-3.2873,-3.2923,-3.2924,-3.2924,-3.2925,-3.2991,-3.2992,-3.2994,0,0,0,0,0,0,0,0,0,0,0,0,0,-3.2763,-3.2715,-3.2802,-3.2837,-3.2841,-3.2871,-3.2872,-3.2873,-3.2923,-3.2924,-3.2924,-3.2925,-3.299,-3.2992,-3.2994,-3.2994,0,0,-3.3001,-3.3001,0,0,0,0,0,0,0,0,-3.276,-3.2767,-3.2831,-3.2835,-3.2839,-3.2889,-3.2865,-3.2913,-3.2923,-3.2892,-3.2925,-3.2925,-3.2957,-3.2961,-3.2973,-3.2997,-3.3,-3.3001,-3.3002,-3.3003,-3.3003,0,0,0,0,0,0,0,-3.2757,-3.2764,-3.2829,-3.2832,-3.2837,-3.2849,-3.2857,-3.2874,-3.2919,-3.2894,-3.2898,-3.2906,-3.2959,-3.2971,-3.2975,-3.3001,-3.3001,-3.3003,-3.3004,-3.3005,-3.3031,-3.3031,0,0,0,0,0,0,-3.2748,-3.2761,-3.2827,-3.2831,-3.2801,-3.285,-3.2859,-3.2872,-3.2919,-3.2927,-3.2905,-3.2908,-3.2967,-3.2972,-3.2977,-3.2982,-3.3003,-3.3005,-3.3006,-3.3032,-3.3031,-3.303,0,0,0,0,0,0,-3.2746,-3.2754,-3.2824,-3.2797,-3.2807,-3.2851,-3.2866,-3.2873,-3.2885,-3.2928,-3.2936,-3.2909,-3.2968,-3.2974,-3.299,-3.2985,-3.3006,-3.3008,-3.3032,-3.3031,-3.3031,-3.2989,0,0,0,0,0,0,-3.2743,-3.2753,-3.2753,-3.2797,-3.2808,-3.2836,-3.2865,-3.2874,-3.2889,-3.2893,-3.2934,-3.2941,-3.2969,-3.2987,-3.2992,-3.2988,-3.3009,-3.3033,-3.3032,-3.3031,-3.2991,-3.2987,-3.2983,0,0,0,0,0,-3.274,-3.2736,-3.2752,-3.276,-3.281,-3.2836,-3.2842,-3.2876,-3.2889,-3.2889,-3.2917,-3.2939,-3.2985,-3.2988,-3.2995,-3.2991,-3.3033,-3.3032,-3.3031,-3.2993,-3.2988,-3.2983,0,0,0,0,0,0,-3.2688,-3.2743,-3.2761,-3.2772,-3.2799,-3.2844,-3.2846,-3.2869,-3.2891,-3.2894,-3.2934,-3.2942,-3.2955,-3.2974,-3.2977,-3.2994,-3.3012,-3.3012,-3.2981,-3.2976,-3.2972,-3.2967,-3.3011,0,0,0,0,0,-3.2678,-3.2696,-3.2742,-3.2747,-3.276,-3.2801,-3.2813,-3.2837,-3.2866,-3.2877,-3.2906,-3.2933,-3.2954,-3.2966,-3.2987,-3.2995,-3.3005,-3.2995,-3.2991,-3.2988,-3.2987,-3.2996,-3.2992,-3.3027,-3.3027,-3.3027,0,0,-3.2657,-3.2689,-3.2697,-3.2738,-3.2762,-3.2779,-3.281,-3.2826,-3.2839,-3.2879,-3.2897,-3.292,-3.2952,-3.2965,-3.2971,-3.2981,-3.2981,-3.2987,-3.2984,-3.2985,-3.2994,-3.2991,-3.2988,-3.3026,-3.3026,-3.3026,0,0,-3.2628,-3.2654,-3.2662,-3.2687,-3.2724,-3.2751,-3.2753,-3.2796,-3.2813,-3.2832,-3.2864,-3.288,-3.2914,-3.2937,-3.2953,-3.2937,-3.2959,-3.2943,-3.2922,-3.293,-3.2927,-3.2925,-3.2921,-3.2918,-3.2942,-3.2942,-3.2942,0,-3.2596,-3.2625,-3.2663,-3.2679,-3.2696,-3.2737,-3.2746,-3.2767,-3.2808,-3.282,-3.2831,-3.2877,-3.2901,-3.2921,-3.2918,-3.2929,-3.2933,-3.2938,-3.2924,-3.2923,-3.2921,-3.2918,-3.2916,-3.294,-3.294,-3.294,-3.2941,0,-3.2585,-3.2605,-3.2607,-3.2649,-3.2667,-3.2679,-3.2719,-3.2733,-3.2756,-3.2783,-3.2803,-3.2835,-3.2864,-3.2871,-3.2892,-3.2895,-3.29,-3.2917,-3.2936,-3.2915,-3.2913,-3.2911,-3.2937,-3.2938,-3.2938,-3.2939,0,0,-3.2522,-3.2589,-3.2589,-3.261,-3.2655,-3.2671,-3.2686,-3.2717,-3.2729,-3.2756,-3.2771,-3.2801,-3.2818,-3.2836,-3.2861,-3.2868,-3.2856,-3.2885,-3.2886,-3.2879,-3.2863,-3.2849,-3.2847,-3.2872,-3.2872,-3.2871,-3.286,0,-3.2501,-3.2531,-3.2568,-3.2586,-3.2605,-3.2646,-3.2659,-3.2689,-3.2715,-3.2735,-3.2764,-3.2785,-3.2806,-3.2817,-3.2826,-3.2856,-3.2853,-3.2857,-3.2885,-3.2886,-3.2876,-3.2846,-3.2831,-3.2819,-3.2859,-3.2859,-3.2859,0,-3.2478,-3.2508,-3.2528,-3.2576,-3.2585,-3.2596,-3.263,-3.2649,-3.2684,-3.2703,-3.2725,-3.2753,-3.2772,-3.2789,-3.2816,-3.2818,-3.2832,-3.2849,-3.2849,-3.2853,-3.2871,-3.2849,-3.2816,-3.2814,-3.2858,-3.2858,-3.2858,0,-3.2432,-3.2476,-3.2495,-3.2511,-3.2567,-3.2575,-3.2598,-3.2634,-3.2651,-3.268,-3.2693,-3.2722,-3.2739,-3.2762,-3.2797,-3.2806,-3.2821,-3.2841,-3.2838,-3.2837,-3.2838,-3.2837,-3.2807,-3.2846,-3.2846,-3.2846,-3.2847,0,-3.2404,-3.2415,-3.2476,-3.2487,-3.2501,-3.2544,-3.2557,-3.2584,-3.2617,-3.2634,-3.2671,-3.2686,-3.2733,-3.2754,-3.2782,-3.2801,-3.2808,-3.2824,-3.2831,-3.2821,-3.2819,-3.283,-3.2832,-3.2846,-3.2846,-3.2846,-3.2846,0,-3.2354,-3.2395,-3.2418,-3.2471,-3.2484,-3.2492,-3.2537,-3.255,-3.258,-3.2602,-3.261,-3.2656,-3.2683,-3.2722,-3.276,-3.2779,-3.2795,-3.2806,-3.2783,-3.2788,-3.2783,-3.2783,-3.2759,-3.2758,-3.2797,-3.2797,-3.2796,0,-3.2333,-3.2344,-3.2398,-3.2414,-3.2437,-3.2461,-3.248,-3.2524,-3.2542,-3.2585,-3.2593,-3.2624,-3.2651,-3.2693,-3.273,-3.276,-3.2773,-3.2763,-3.2778,-3.2768,-3.2774,-3.2774,-3.2776,-3.2759,-3.2758,-3.2757,-3.2757,0,-3.2293,-3.2314,-3.2341,-3.2376,-3.2399,-3.2428,-3.2459,-3.2469,-3.252,-3.2539,-3.2569,-3.259,-3.2631,-3.2662,-3.2698,-3.2721,-3.2748,-3.2753,-3.2754,-3.2743,-3.273,-3.2738,-3.2774,-3.2752,-3.2753,-3.2753,-3.2753,-3.2754,-3.2258,-3.227,-3.2312,-3.2342,-3.237,-3.2399,-3.2415,-3.2449,-3.2475,-3.2513,-3.2537,-3.2566,-3.2605,-3.2656,-3.2679,-3.2703,-3.2713,-3.2714,-3.2715,-3.2714,-3.2712,-3.2726,-3.2709,-3.2709,-3.271,-3.271,-3.271,0,-3.2221,-3.2251,-3.2278,-3.2322,-3.2346,-3.2371,-3.2408,-3.2426,-3.2451,-3.2485,-3.2513,-3.2548,-3.2579,-3.262,-3.2654,-3.2665,-3.2678,-3.2672,-3.2672,-3.2677,-3.2699,-3.2696,-3.2661,-3.2661,-3.2661,-3.2661,-3.2661,-3.2661,-3.2204,-3.2227,-3.2253,-3.2291,-3.2321,-3.2352,-3.2371,-3.2398,-3.2426,-3.2465,-3.2492,-3.2519,-3.2556,-3.2594,-3.2624,-3.2635,-3.2646,-3.2637,-3.2651,-3.2671,-3.2675,-3.268,-3.2676,-3.2638,-3.2638,-3.2628,-3.2628,-3.2628]}]]